Time,TemperatureF,DewpointF,PressureIn,WindDirection,WindDirectionDegrees,WindSpeedMPH,WindSpeedGustMPH,Humidity,HourlyPrecipIn,Conditions,Clouds,dailyrainin,SoftwareType,DateUTC
2013-01-13 10:40:00,3.6,-1.4,30.24,West,273,6.0,9.0,79,0.00,,,0.00,VWS V14.01,2013-01-13 16:40:00,
2013-01-13 10:42:00,3.7,-1.3,30.24,West,265,4.0,10.0,79,0.00,,,0.00,VWS V14.01,2013-01-13 16:42:00,
2013-01-13 10:43:00,3.7,-1.3,30.24,West,273,4.0,11.0,79,0.00,,,0.00,VWS V14.01,2013-01-13 16:43:00,
2013-01-13 10:46:00,3.7,-1.3,30.23,West,262,5.0,11.0,79,0.00,,,0.00,VWS V14.01,2013-01-13 16:46:00,
2013-01-13 10:52:00,3.8,-1.2,30.23,WNW,293,5.0,11.0,79,0.00,,,0.00,VWS V14.01,2013-01-13 16:52:00,
2013-01-13 10:57:00,3.8,-1.2,30.22,WNW,302,7.0,11.0,79,0.00,,,0.00,VWS V14.01,2013-01-13 16:57:00,
2013-01-13 11:02:00,3.9,-1.1,30.22,West,273,2.0,11.0,79,0.00,,,0.00,VWS V14.01,2013-01-13 17:02:00,
2013-01-13 11:08:00,3.9,-0.9,30.22,WSW,250,4.0,11.0,80,0.00,,,0.00,VWS V14.01,2013-01-13 17:08:00,
2013-01-13 11:13:00,4.1,-0.7,30.22,West,275,1.0,11.0,80,0.00,,,0.00,VWS V14.01,2013-01-13 17:13:00,
2013-01-13 11:18:00,4.0,-0.8,30.22,WNW,288,0.0,11.0,80,0.00,,,0.00,VWS V14.01,2013-01-13 17:18:00,
2013-01-13 11:23:00,4.2,-0.6,30.21,West,277,2.0,11.0,80,0.00,,,0.00,VWS V14.01,2013-01-13 17:23:00,
2013-01-13 11:28:00,4.3,-0.8,30.21,WNW,283,1.0,11.0,79,0.00,,,0.00,VWS V14.01,2013-01-13 17:28:00,
2013-01-13 11:33:00,4.2,-0.9,30.21,NW,304,3.0,9.0,79,0.00,,,0.00,VWS V14.01,2013-01-13 17:33:00,
2013-01-13 11:38:00,4.4,-0.7,30.21,NW,310,2.0,9.0,79,0.00,,,0.00,VWS V14.01,2013-01-13 17:38:00,
2013-01-13 11:43:00,4.4,-0.7,30.21,NW,311,2.0,10.0,79,0.00,,,0.00,VWS V14.01,2013-01-13 17:43:00,
2013-01-13 11:49:00,4.1,-1.2,30.21,WNW,300,4.0,10.0,78,0.00,,,0.00,VWS V14.01,2013-01-13 17:49:00,
2013-01-13 11:54:00,4.2,-0.9,30.21,WNW,302,5.0,11.0,79,0.00,,,0.00,VWS V14.01,2013-01-13 17:54:00,
2013-01-13 11:59:00,4.4,-0.7,30.20,NW,315,9.0,14.0,79,0.00,,,0.00,VWS V14.01,2013-01-13 17:59:00,
2013-01-13 12:04:00,4.4,-0.9,30.20,NW,310,0.0,11.0,78,0.00,,,0.00,VWS V14.01,2013-01-13 18:04:00,
2013-01-13 12:09:00,4.6,-0.7,30.20,West,272,5.0,11.0,78,0.00,,,0.00,VWS V14.01,2013-01-13 18:09:00,
2013-01-13 12:14:00,4.7,-0.4,30.20,South,182,4.0,11.0,79,0.00,,,0.00,VWS V14.01,2013-01-13 18:14:00,
2013-01-13 12:19:00,4.9,-0.2,30.20,West,281,6.0,11.0,79,0.00,,,0.00,VWS V14.01,2013-01-13 18:19:00,
2013-01-13 12:24:00,5.1,-0.2,30.19,West,271,2.0,11.0,78,0.00,,,0.00,VWS V14.01,2013-01-13 18:24:00,
2013-01-13 12:30:00,5.3,0.2,30.20,West,268,7.0,11.0,79,0.00,,,0.00,VWS V14.01,2013-01-13 18:30:00,
2013-01-13 12:35:00,5.5,0.1,30.20,WNW,302,6.0,11.0,78,0.00,,,0.00,VWS V14.01,2013-01-13 18:35:00,
2013-01-13 12:40:00,5.1,-0.5,30.19,WNW,282,0.0,11.0,77,0.00,,,0.00,VWS V14.01,2013-01-13 18:40:00,
2013-01-13 12:45:00,5.4,0.0,30.19,WNW,293,3.0,11.0,78,0.00,,,0.00,VWS V14.01,2013-01-13 18:45:00,
2013-01-13 12:50:00,5.6,0.2,30.20,WSW,250,0.0,11.0,78,0.00,,,0.00,VWS V14.01,2013-01-13 18:50:00,
2013-01-13 12:55:00,5.9,0.5,30.20,NNW,339,5.0,11.0,78,0.00,,,0.00,VWS V14.01,2013-01-13 18:55:00,
2013-01-13 13:00:00,5.9,0.3,30.20,West,268,0.0,11.0,77,0.00,,,0.00,VWS V14.01,2013-01-13 19:00:00,
2013-01-13 13:06:00,5.9,0.3,30.20,West,276,7.0,7.0,77,0.00,,,0.00,VWS V14.01,2013-01-13 19:06:00,
2013-01-13 13:11:00,6.1,0.4,30.20,West,280,1.0,9.0,77,0.00,,,0.00,VWS V14.01,2013-01-13 19:11:00,
2013-01-13 13:16:00,6.4,0.7,30.20,West,278,4.0,9.0,77,0.00,,,0.00,VWS V14.01,2013-01-13 19:16:00,
2013-01-13 13:21:00,6.4,0.5,30.20,WNW,294,6.0,12.0,76,0.00,,,0.00,VWS V14.01,2013-01-13 19:21:00,
2013-01-13 13:26:00,6.3,0.4,30.20,WNW,287,4.0,12.0,76,0.00,,,0.00,VWS V14.01,2013-01-13 19:26:00,
2013-01-13 13:31:00,6.4,0.5,30.20,West,262,0.0,5.0,76,0.00,,,0.00,VWS V14.01,2013-01-13 19:31:00,
2013-01-13 13:37:00,6.7,1.0,30.20,West,273,2.0,10.0,77,0.00,,,0.00,VWS V14.01,2013-01-13 19:37:00,
2013-01-13 13:42:00,7.0,1.3,30.20,NW,311,6.0,10.0,77,0.00,,,0.00,VWS V14.01,2013-01-13 19:42:00,
2013-01-13 13:47:00,7.1,1.4,30.20,WSW,254,5.0,10.0,77,0.00,,,0.00,VWS V14.01,2013-01-13 19:47:00,
2013-01-13 13:52:00,6.9,1.2,30.20,NW,308,3.0,11.0,77,0.00,,,0.00,VWS V14.01,2013-01-13 19:52:00,
2013-01-13 13:57:00,6.7,1.0,30.20,WNW,290,4.0,12.0,77,0.00,,,0.00,VWS V14.01,2013-01-13 19:57:00,
2013-01-13 14:02:00,6.5,0.6,30.20,WNW,283,5.0,10.0,76,0.00,,,0.00,VWS V14.01,2013-01-13 20:02:00,
2013-01-13 14:07:00,6.5,0.6,30.21,West,279,3.0,10.0,76,0.00,,,0.00,VWS V14.01,2013-01-13 20:07:00,
2013-01-13 14:12:00,6.5,0.6,30.21,West,264,3.0,10.0,76,0.00,,,0.00,VWS V14.01,2013-01-13 20:12:00,
2013-01-13 14:18:00,6.5,0.6,30.21,West,262,3.0,10.0,76,0.00,,,0.00,VWS V14.01,2013-01-13 20:18:00,
2013-01-13 14:23:00,6.9,1.2,30.22,WNW,295,0.0,10.0,77,0.00,,,0.00,VWS V14.01,2013-01-13 20:23:00,
2013-01-13 14:28:00,6.9,0.9,30.22,West,275,4.0,10.0,76,0.00,,,0.00,VWS V14.01,2013-01-13 20:28:00,
2013-01-13 14:33:00,7.0,1.0,30.22,WNW,289,6.0,10.0,76,0.00,,,0.00,VWS V14.01,2013-01-13 20:33:00,
2013-01-13 14:38:00,7.1,1.1,30.22,WNW,287,1.0,10.0,76,0.00,,,0.00,VWS V14.01,2013-01-13 20:38:00,
2013-01-13 14:43:00,7.3,1.3,30.22,WNW,289,1.0,10.0,76,0.00,,,0.00,VWS V14.01,2013-01-13 20:43:00,
2013-01-13 14:48:00,7.5,1.8,30.22,WNW,299,6.0,10.0,77,0.00,,,0.00,VWS V14.01,2013-01-13 20:48:00,
2013-01-13 14:53:00,7.6,1.6,30.22,WNW,291,4.0,10.0,76,0.00,,,0.00,VWS V14.01,2013-01-13 20:53:00,
2013-01-13 14:59:00,7.8,1.8,30.23,West,269,3.0,10.0,76,0.00,,,0.00,VWS V14.01,2013-01-13 20:59:00,
2013-01-13 15:04:00,8.1,2.1,30.23,WSW,258,1.0,12.0,76,0.00,,,0.00,VWS V14.01,2013-01-13 21:04:00,
2013-01-13 15:09:00,8.2,2.2,30.23,West,266,4.0,12.0,76,0.00,,,0.00,VWS V14.01,2013-01-13 21:09:00,
2013-01-13 15:14:00,8.5,2.5,30.24,WNW,303,5.0,12.0,76,0.00,,,0.00,VWS V14.01,2013-01-13 21:14:00,
2013-01-13 15:19:00,8.4,2.1,30.24,WSW,254,4.0,12.0,75,0.00,,,0.00,VWS V14.01,2013-01-13 21:19:00,
2013-01-13 15:24:00,8.4,2.1,30.24,WNW,297,0.0,12.0,75,0.00,,,0.00,VWS V14.01,2013-01-13 21:24:00,
2013-01-13 15:29:00,8.1,1.5,30.24,West,269,5.0,12.0,74,0.00,,,0.00,VWS V14.01,2013-01-13 21:29:00,
2013-01-13 15:35:00,8.0,1.7,30.24,West,262,0.0,11.0,75,0.00,,,0.00,VWS V14.01,2013-01-13 21:35:00,
2013-01-13 15:40:00,7.7,1.4,30.24,West,277,1.0,11.0,75,0.00,,,0.00,VWS V14.01,2013-01-13 21:40:00,
2013-01-13 15:45:00,7.5,1.2,30.24,WSW,250,4.0,11.0,75,0.00,,,0.00,VWS V14.01,2013-01-13 21:45:00,
2013-01-13 15:50:00,7.3,1.0,30.25,West,274,1.0,11.0,75,0.00,,,0.00,VWS V14.01,2013-01-13 21:50:00,
2013-01-13 15:55:00,7.1,0.9,30.25,NW,316,2.0,11.0,75,0.00,,,0.00,VWS V14.01,2013-01-13 21:55:00,
2013-01-13 16:00:00,7.0,0.8,30.25,West,264,3.0,11.0,75,0.00,,,0.00,VWS V14.01,2013-01-13 22:00:00,
2013-01-13 16:05:00,6.8,0.6,30.25,West,268,2.0,10.0,75,0.00,,,0.00,VWS V14.01,2013-01-13 22:05:00,
2013-01-13 16:10:00,6.7,0.5,30.25,West,277,0.0,10.0,75,0.00,,,0.00,VWS V14.01,2013-01-13 22:10:00,
2013-01-13 16:15:00,6.7,0.8,30.25,West,277,5.0,10.0,76,0.00,,,0.00,VWS V14.01,2013-01-13 22:15:00,
2013-01-13 16:21:00,6.6,0.7,30.25,WSW,245,5.0,10.0,76,0.00,,,0.00,VWS V14.01,2013-01-13 22:21:00,
2013-01-13 16:26:00,6.4,0.5,30.26,West,274,6.0,10.0,76,0.00,,,0.00,VWS V14.01,2013-01-13 22:26:00,
2013-01-13 16:31:00,6.3,0.4,30.26,WNW,289,5.0,5.0,76,0.00,,,0.00,VWS V14.01,2013-01-13 22:31:00,
2013-01-13 16:36:00,6.2,0.3,30.26,West,277,1.0,10.0,76,0.00,,,0.00,VWS V14.01,2013-01-13 22:36:00,
2013-01-13 16:41:00,6.1,0.4,30.26,West,262,4.0,10.0,77,0.00,,,0.00,VWS V14.01,2013-01-13 22:41:00,
2013-01-13 16:47:00,6.0,0.3,30.27,West,280,2.0,10.0,77,0.00,,,0.00,VWS V14.01,2013-01-13 22:47:00,
2013-01-13 16:52:00,5.9,0.3,30.27,WSW,256,1.0,10.0,77,0.00,,,0.00,VWS V14.01,2013-01-13 22:52:00,
2013-01-13 16:57:00,5.9,0.3,30.27,West,260,0.0,10.0,77,0.00,,,0.00,VWS V14.01,2013-01-13 22:57:00,
2013-01-13 17:02:00,5.9,0.3,30.27,West,275,0.0,5.0,77,0.00,,,0.00,VWS V14.01,2013-01-13 23:02:00,
2013-01-13 17:07:00,5.8,0.2,30.27,West,277,1.0,6.0,77,0.00,,,0.00,VWS V14.01,2013-01-13 23:07:00,
2013-01-13 17:12:00,5.8,0.2,30.27,West,262,3.0,6.0,77,0.00,,,0.00,VWS V14.01,2013-01-13 23:12:00,
2013-01-13 17:18:00,5.8,0.4,30.27,West,261,6.0,6.0,78,0.00,,,0.00,VWS V14.01,2013-01-13 23:18:00,
2013-01-13 17:23:00,5.8,0.4,30.27,West,281,2.0,9.0,78,0.00,,,0.00,VWS V14.01,2013-01-13 23:23:00,
2013-01-13 17:28:00,5.8,0.4,30.27,West,262,0.0,9.0,78,0.00,,,0.00,VWS V14.01,2013-01-13 23:28:00,
2013-01-13 17:33:00,5.8,0.4,30.27,West,262,0.0,2.0,78,0.00,,,0.00,VWS V14.01,2013-01-13 23:33:00,
2013-01-13 17:38:00,5.8,0.4,30.27,West,260,0.0,5.0,78,0.00,,,0.00,VWS V14.01,2013-01-13 23:38:00,
2013-01-13 17:43:00,5.7,0.6,30.27,West,273,0.0,7.0,79,0.00,,,0.00,VWS V14.01,2013-01-13 23:43:00,
2013-01-13 17:49:00,5.7,0.6,30.27,West,259,3.0,7.0,79,0.00,,,0.00,VWS V14.01,2013-01-13 23:49:00,
2013-01-13 17:54:00,5.6,0.5,30.27,WSW,258,0.0,7.0,79,0.00,,,0.00,VWS V14.01,2013-01-13 23:54:00,
2013-01-13 17:59:00,5.5,0.4,30.27,West,260,2.0,7.0,79,0.00,,,0.00,VWS V14.01,2013-01-13 23:59:00,
2013-01-13 18:04:00,5.4,0.3,30.27,West,263,2.0,5.0,79,0.00,,,0.00,VWS V14.01,2013-01-14 00:04:00,
2013-01-13 18:09:00,5.4,0.3,30.28,West,260,0.0,5.0,79,0.00,,,0.00,VWS V14.01,2013-01-14 00:09:00,
2013-01-13 18:14:00,5.3,0.2,30.28,West,267,0.0,6.0,79,0.00,,,0.00,VWS V14.01,2013-01-14 00:14:00,
2013-01-13 18:20:00,5.3,0.2,30.28,WSW,254,1.0,6.0,79,0.00,,,0.00,VWS V14.01,2013-01-14 00:20:00,
2013-01-13 18:25:00,5.3,0.2,30.28,WSW,255,3.0,6.0,79,0.00,,,0.00,VWS V14.01,2013-01-14 00:25:00,
2013-01-13 18:30:00,5.2,0.1,30.28,West,264,3.0,6.0,79,0.00,,,0.00,VWS V14.01,2013-01-14 00:30:00,
2013-01-13 18:35:00,5.2,0.1,30.28,WSW,256,2.0,6.0,79,0.00,,,0.00,VWS V14.01,2013-01-14 00:35:00,
2013-01-13 18:40:00,5.2,0.4,30.28,West,260,3.0,6.0,80,0.00,,,0.00,VWS V14.01,2013-01-14 00:40:00,
2013-01-13 18:46:00,5.1,0.0,30.28,West,260,4.0,6.0,79,0.00,,,0.00,VWS V14.01,2013-01-14 00:46:00,
2013-01-13 18:51:00,5.1,0.3,30.28,West,260,2.0,6.0,80,0.00,,,0.00,VWS V14.01,2013-01-14 00:51:00,
2013-01-13 18:56:00,5.0,2.5,30.29,West,259,1.0,6.0,89,0.00,,,0.00,VWS V14.01,2013-01-14 00:56:00,
2013-01-13 19:01:00,4.9,0.1,30.29,WSW,254,0.0,5.0,80,0.00,,,0.00,VWS V14.01,2013-01-14 01:01:00,
2013-01-13 19:06:00,4.9,0.1,30.29,WSW,245,4.0,5.0,80,0.00,,,0.00,VWS V14.01,2013-01-14 01:06:00,
2013-01-13 19:11:00,4.8,0.0,30.29,WSW,254,3.0,6.0,80,0.00,,,0.00,VWS V14.01,2013-01-14 01:11:00,
2013-01-13 19:17:00,4.8,0.0,30.29,SSW,203,0.0,6.0,80,0.00,,,0.00,VWS V14.01,2013-01-14 01:17:00,
2013-01-13 19:22:00,4.8,0.3,30.29,WSW,245,3.0,6.0,81,0.00,,,0.00,VWS V14.01,2013-01-14 01:22:00,
2013-01-13 19:27:00,4.8,0.3,30.30,WSW,245,0.0,6.0,81,0.00,,,0.00,VWS V14.01,2013-01-14 01:27:00,
2013-01-13 19:32:00,4.8,0.3,30.30,WSW,245,1.0,3.0,81,0.00,,,0.00,VWS V14.01,2013-01-14 01:32:00,
2013-01-13 19:37:00,4.9,0.4,30.30,WSW,245,3.0,4.0,81,0.00,,,0.00,VWS V14.01,2013-01-14 01:37:00,
2013-01-13 19:42:00,4.9,0.4,30.30,WSW,245,3.0,5.0,81,0.00,,,0.00,VWS V14.01,2013-01-14 01:42:00,
2013-01-13 19:48:00,4.9,0.4,30.30,WSW,245,0.0,5.0,81,0.00,,,0.00,VWS V14.01,2013-01-14 01:48:00,
2013-01-13 19:53:00,4.9,0.4,30.31,West,277,3.0,6.0,81,0.00,,,0.00,VWS V14.01,2013-01-14 01:53:00,
2013-01-13 19:58:00,5.0,0.5,30.31,West,265,2.0,6.0,81,0.00,,,0.00,VWS V14.01,2013-01-14 01:58:00,
2013-01-13 20:03:00,5.0,0.2,30.31,West,266,4.0,5.0,80,0.00,,,0.00,VWS V14.01,2013-01-14 02:03:00,
2013-01-13 20:08:00,5.0,0.5,30.31,West,260,4.0,6.0,81,0.00,,,0.00,VWS V14.01,2013-01-14 02:08:00,
2013-01-13 20:14:00,5.1,0.6,30.31,West,265,2.0,6.0,81,0.00,,,0.00,VWS V14.01,2013-01-14 02:14:00,
2013-01-13 20:19:00,5.2,0.6,30.31,West,265,2.0,6.0,81,0.00,,,0.00,VWS V14.01,2013-01-14 02:19:00,
2013-01-13 20:24:00,5.2,0.6,30.30,West,266,0.0,6.0,81,0.00,,,0.00,VWS V14.01,2013-01-14 02:24:00,
2013-01-13 20:29:00,5.3,0.5,30.31,West,265,0.0,6.0,80,0.00,,,0.00,VWS V14.01,2013-01-14 02:29:00,
2013-01-13 20:34:00,5.3,0.8,30.31,West,265,0.0,3.0,81,0.00,,,0.00,VWS V14.01,2013-01-14 02:34:00,
2013-01-13 20:40:00,5.3,0.8,30.31,West,267,1.0,5.0,81,0.00,,,0.00,VWS V14.01,2013-01-14 02:40:00,
2013-01-13 20:45:00,5.3,0.8,30.31,West,266,1.0,5.0,81,0.00,,,0.00,VWS V14.01,2013-01-14 02:45:00,
2013-01-13 20:50:00,5.4,0.9,30.31,West,265,2.0,5.0,81,0.00,,,0.00,VWS V14.01,2013-01-14 02:50:00,
2013-01-13 20:55:00,5.4,0.9,30.31,West,266,1.0,5.0,81,0.00,,,0.00,VWS V14.01,2013-01-14 02:55:00,
2013-01-13 21:00:00,5.4,0.9,30.31,WSW,245,4.0,8.0,81,0.00,,,0.00,VWS V14.01,2013-01-14 03:00:00,
2013-01-13 21:06:00,5.4,0.9,30.31,WSW,256,0.0,5.0,81,0.00,,,0.00,VWS V14.01,2013-01-14 03:06:00,
2013-01-13 21:11:00,5.5,0.9,30.31,WSW,257,0.0,5.0,81,0.00,,,0.00,VWS V14.01,2013-01-14 03:11:00,
2013-01-13 21:16:00,5.5,0.9,30.31,WSW,258,2.0,5.0,81,0.00,,,0.00,VWS V14.01,2013-01-14 03:16:00,
2013-01-13 21:21:00,5.5,0.9,30.31,WSW,258,0.0,5.0,81,0.00,,,0.00,VWS V14.01,2013-01-14 03:21:00,
2013-01-13 21:26:00,5.5,0.9,30.31,WNW,289,0.0,5.0,81,0.00,,,0.00,VWS V14.01,2013-01-14 03:26:00,
2013-01-13 21:32:00,5.5,0.9,30.31,WNW,289,1.0,1.0,81,0.00,,,0.00,VWS V14.01,2013-01-14 03:32:00,
2013-01-13 21:37:00,5.5,0.9,30.31,West,263,2.0,6.0,81,0.00,,,0.00,VWS V14.01,2013-01-14 03:37:00,
2013-01-13 21:42:00,5.5,0.9,30.32,West,264,0.0,6.0,81,0.00,,,0.00,VWS V14.01,2013-01-14 03:42:00,
2013-01-13 21:47:00,5.4,0.9,30.31,WSW,250,5.0,6.0,81,0.00,,,0.00,VWS V14.01,2013-01-14 03:47:00,
2013-01-13 21:52:00,5.4,0.9,30.31,WSW,254,1.0,6.0,81,0.00,,,0.00,VWS V14.01,2013-01-14 03:52:00,
2013-01-13 21:57:00,5.4,0.9,30.31,WSW,255,0.0,6.0,81,0.00,,,0.00,VWS V14.01,2013-01-14 03:57:00,
2013-01-13 22:03:00,5.3,0.8,30.32,WSW,258,0.0,6.0,81,0.00,,,0.00,VWS V14.01,2013-01-14 04:03:00,
2013-01-13 22:08:00,5.3,0.8,30.32,WSW,258,0.0,6.0,81,0.00,,,0.00,VWS V14.01,2013-01-14 04:08:00,
2013-01-13 22:13:00,5.2,0.9,30.32,WSW,258,0.0,6.0,82,0.00,,,0.00,VWS V14.01,2013-01-14 04:13:00,
2013-01-13 22:18:00,5.2,0.9,30.32,WSW,258,1.0,6.0,82,0.00,,,0.00,VWS V14.01,2013-01-14 04:18:00,
2013-01-13 22:23:00,5.1,0.8,30.32,WSW,258,3.0,6.0,82,0.00,,,0.00,VWS V14.01,2013-01-14 04:23:00,
2013-01-13 22:28:00,5.1,0.8,30.32,WSW,258,2.0,6.0,82,0.00,,,0.00,VWS V14.01,2013-01-14 04:28:00,
2013-01-13 22:33:00,5.0,0.7,30.33,WSW,258,0.0,2.0,82,0.00,,,0.00,VWS V14.01,2013-01-14 04:33:00,
2013-01-13 22:39:00,4.9,0.6,30.33,WSW,258,0.0,2.0,82,0.00,,,0.00,VWS V14.01,2013-01-14 04:39:00,
2013-01-13 22:45:00,4.7,0.4,30.33,WSW,258,0.0,2.0,82,0.00,,,0.00,VWS V14.01,2013-01-14 04:45:00,
2013-01-13 22:50:00,4.6,0.3,30.33,West,259,0.0,5.0,82,0.00,,,0.00,VWS V14.01,2013-01-14 04:50:00,
2013-01-13 22:55:00,4.5,0.2,30.33,WSW,257,0.0,5.0,82,0.00,,,0.00,VWS V14.01,2013-01-14 04:55:00,
2013-01-13 23:00:00,4.4,0.1,30.33,WSW,258,0.0,5.0,82,0.00,,,0.00,VWS V14.01,2013-01-14 05:00:00,
2013-01-13 23:01:00,4.4,0.1,30.33,WSW,258,0.0,2.0,82,0.00,,,0.00,VWS V14.01,2013-01-14 05:01:00,
2013-01-13 23:02:00,4.4,0.1,30.33,West,259,0.0,2.0,82,0.00,,,0.00,VWS V14.01,2013-01-14 05:02:00,
2013-01-13 23:04:00,4.4,0.1,30.33,WSW,257,0.0,2.0,82,0.00,,,0.00,VWS V14.01,2013-01-14 05:04:00,
2013-01-13 23:09:00,4.4,0.1,30.33,WSW,258,1.0,3.0,82,0.00,,,0.00,VWS V14.01,2013-01-14 05:09:00,
2013-01-13 23:15:00,4.3,0.0,30.33,WSW,258,3.0,3.0,82,0.00,,,0.00,VWS V14.01,2013-01-14 05:15:00,
2013-01-13 23:20:00,4.3,0.0,30.33,WSW,258,1.0,4.0,82,0.00,,,0.00,VWS V14.01,2013-01-14 05:20:00,
2013-01-13 23:25:00,4.3,0.0,30.33,WSW,258,1.0,4.0,82,0.00,,,0.00,VWS V14.01,2013-01-14 05:25:00,
2013-01-13 23:30:00,4.3,0.0,30.33,WSW,258,0.0,0.0,82,0.00,,,0.00,VWS V14.01,2013-01-14 05:30:00,
2013-01-13 23:36:00,4.2,-0.1,30.34,WSW,258,0.0,4.0,82,0.00,,,0.00,VWS V14.01,2013-01-14 05:36:00,
2013-01-13 23:41:00,4.2,-0.1,30.34,WSW,258,1.0,4.0,82,0.00,,,0.00,VWS V14.01,2013-01-14 05:41:00,
2013-01-13 23:46:00,4.1,-0.2,30.34,WSW,258,0.0,4.0,82,0.00,,,0.00,VWS V14.01,2013-01-14 05:46:00,
2013-01-13 23:51:00,4.1,-0.2,30.34,WSW,258,0.0,4.0,82,0.00,,,0.00,VWS V14.01,2013-01-14 05:51:00,
2013-01-13 23:56:00,4.1,0.1,30.34,West,259,0.0,4.0,83,0.00,,,0.00,VWS V14.01,2013-01-14 05:56:00,